Location: Izdebno
(52.6670°N, 16.2170°E)
Time: 09:25:17
(UTC+01:00)

Vanguard 2 - Pass Details

Date: 27 September 2023
Orbit: 552 x 2923 km, 32.9° (Epoch: 07 December)

Event Time Altitude Azimuth Distance (km) Brightness Sun altitude
Rises 20:41:43 0° 233° (SW) 6,297 12.6 -18.5°
Reaches altitude 10° 20:47:23 10° 222° (SW) 4,925 11.8 -19.3°
Maximum altitude 20:56:44 23° 178° (S) 3,205 10.4 -20.6°
Enters shadow 20:59:48 20° 154° (SSE) 3,108 10.1 -21.0°
